Pierceville, KS

5:36 AM CST on February 08, 2016 (GMT -0600)
Garden City Regional

Weather History for KGCK - August, 2014

Change the Weather History Date:

Monday, August 11, 2014

  Actual Average Record
Temperature  
Mean Temperature 74 °F 78 °F  
Max Temperature 84 °F 90 °F 104 °F (2007)
Min Temperature 63 °F 65 °F 49 °F (1979)
Degree Days  
Heating Degree Days 0 0  
Month to date heating degree days 0 0  
Since 1 June heating degree days 21 17  
Since 1 July heating degree days 10 1  
Cooling Degree Days 9 13  
Month to date cooling degree days 119 143  
Year to date cooling degree days 878 894  
Since 1 June cooling degree days 735 805  
Growing Degree Days 24 (Base 50)    
Moisture  
Dew Point 60 °F    
Average Humidity 69    
Maximum Humidity 100    
Minimum Humidity 37    
Precipitation  
Precipitation 0.00 in 0.09 in 0.77 in (1950)
Month to date precipitation 0.67 1.04  
Year to date precipitation 16.47 14.24  
Sea Level Pressure  
Sea Level Pressure 30.14 in    
Wind  
Wind Speed 8 mph (NE)    
Max Wind Speed 14 mph    
Max Gust Speed 19 mph    
Visibility 10 miles    
Events      
T = Trace of Precipitation, MM = Missing Value Source: NWS Daily Summary

Daily Weather History Graph

Daily Weather History Graph

Search for Another Location

Airport or City:

Trip Planner

Search our weather history database for the weather conditions in past years. The results will help you decide how hot, cold, wet, or windy it might be!

Date:

Astronomy

Aug. 11, 2014 Rise Set
Actual Time 6:54 AM CDT 8:40 PM CDT
Civil Twilight 6:26 AM CDT 9:09 PM CDT
Nautical Twilight 5:52 AM CDT 9:43 PM CDT
Astronomical Twilight 5:15 AM CDT 10:19 PM CDT
Moon 9:12 PM CDT (8/11) 8:00 AM CDT (8/11)
Length of Visible Light 14h 42m
Length of Day
13h 46m
Full, 99% of the Moon is Illuminated
Aug 11
Full
Aug 17
Last Quarter
Aug 25
New
Sep 2
First Quarter
Sep 8
Full

Hourly Weather History & Observations

Time (CDT) Temp. Heat Index Dew Point Humidity Pressure Visibility Wind Dir Wind Speed Gust Speed Precip Events Conditions
12:54 AM 69.1 °F - 63.0 °F 81% 30.12 in 10.0 mi North 9.2 mph - N/A   Clear
1:54 AM 68.0 °F - 63.0 °F 84% 30.12 in 10.0 mi North 6.9 mph - N/A   Clear
2:54 AM 66.9 °F - 63.0 °F 87% 30.11 in 10.0 mi North 8.1 mph - N/A   Clear
3:54 AM 66.9 °F - 63.0 °F 87% 30.11 in 10.0 mi North 8.1 mph - N/A   Partly Cloudy
4:54 AM 66.0 °F - 62.1 °F 87% 30.12 in 10.0 mi North 9.2 mph - N/A   Overcast
5:54 AM 63.0 °F - 62.1 °F 97% 30.13 in 9.0 mi NW 6.9 mph - N/A   Partly Cloudy
6:54 AM 63.0 °F - 61.0 °F 93% 30.14 in 7.0 mi North 8.1 mph - N/A   Partly Cloudy
7:54 AM 64.9 °F - 62.1 °F 90% 30.15 in 10.0 mi North 3.5 mph - N/A   Clear
8:54 AM 69.1 °F - 62.1 °F 78% 30.17 in 10.0 mi NE 9.2 mph - N/A   Clear
9:54 AM 73.0 °F - 63.0 °F 71% 30.18 in 10.0 mi ENE 8.1 mph - N/A   Clear
10:54 AM 75.0 °F - 62.1 °F 64% 30.19 in 10.0 mi ENE 10.4 mph - N/A   Clear
11:54 AM 77.0 °F - 62.1 °F 60% 30.19 in 10.0 mi ENE 12.7 mph - N/A   Clear
12:54 PM 80.1 °F 81.2 °F 62.1 °F 54% 30.19 in 10.0 mi ENE 8.1 mph - N/A   Clear
1:54 PM 81.0 °F 81.7 °F 61.0 °F 50% 30.18 in 10.0 mi East 12.7 mph 17.3 mph N/A   Clear
2:54 PM 82.0 °F 82.4 °F 60.1 °F 47% 30.16 in 10.0 mi East 12.7 mph 16.1 mph N/A   Clear
3:54 PM 84.0 °F 83.8 °F 59.0 °F 43% 30.14 in 10.0 mi NNE 10.4 mph - N/A   Partly Cloudy
4:54 PM 84.0 °F 83.0 °F 55.9 °F 38% 30.13 in 10.0 mi NE 8.1 mph - N/A   Partly Cloudy
5:54 PM 82.9 °F 81.9 °F 54.0 °F 37% 30.12 in 10.0 mi East 6.9 mph - N/A   Clear
6:54 PM 82.9 °F 82.0 °F 55.0 °F 38% 30.10 in 10.0 mi ENE 8.1 mph - N/A   Clear
7:54 PM 81.0 °F 81.0 °F 57.0 °F 44% 30.10 in 10.0 mi NE 6.9 mph - N/A   Clear
8:54 PM 75.9 °F - 59.0 °F 56% 30.10 in 10.0 mi East 4.6 mph - N/A   Clear
9:54 PM 72.0 °F - 60.1 °F 66% 30.12 in 10.0 mi SE 5.8 mph - N/A   Clear
10:54 PM 72.0 °F - 60.1 °F 66% 30.14 in 10.0 mi SE 6.9 mph - N/A   Clear
11:54 PM 66.9 °F - 59.0 °F 76% 30.15 in 10.0 mi SSE 5.8 mph - N/A   Clear